Theta_e
319 318 322 326 335 342 345 346 347 347 347 348 348 349 349 349 348 348 347 347 348 348 348 348 348 348 348 349 349 349 349 350 351 350 350 349 349 350 349 349 348 348 349 349 348 347 347 346 346 346 346 347 347 347 348 348 349 350 351 351 353 354 355 355 355 355 355 355 354 354 355 354 353 355 355 355 356 355 351 351 354 356 356 356 357
315 318 319 322 334 340 342 344 346 346 347 347 347 348 348 348 348 348 347 348 347 347 347 347 347 347 348 348 348 348 349 349 349 349 349 349 349 350 350 350 350 350 350 350 349 348 347 346 346 346 346 346 346 346 346 347 348 349 351 352 353 356 355 355 355 354 353 352 352 352 353 355 354 355 355 355 355 354 352 350 352 356 356 356 357
314 315 316 321 330 337 340 341 343 344 344 345 346 346 346 346 346 347 347 347 348 347 347 347 347 347 347 347 347 347 347 347 348 347 348 348 349 349 349 349 349 350 351 351 350 349 349 349 348 348 348 347 347 347 346 347 347 349 350 351 353 354 354 354 354 354 353 352 352 351 350 351 354 354 356 355 354 355 353 350 351 352 357 357 357
310 311 313 319 326 334 337 339 340 341 341 341 342 343 344 344 345 346 346 346 347 347 348 347 347 347 347 347 347 347 346 346 346 346 346 347 346 345 344 346 347 348 349 350 350 349 349 350 350 349 348 351 349 348 349 349 350 350 350 350 351 353 353 354 354 353 352 351 351 349 351 358 355 354 356 356 355 355 352 350 349 351 354 356 357
308 309 311 316 323 331 335 336 337 337 338 339 339 340 341 341 341 343 344 345 346 347 347 347 348 348 347 348 348 348 347 346 346 346 346 346 346 345 343 344 346 346 347 350 350 349 349 350 350 349 349 351 351 350 350 351 350 349 349 350 351 352 353 352 353 352 351 349 349 348 355 356 357 354 355 355 355 355 351 350 350 352 354 356 356
307 308 310 314 321 328 331 333 333 333 334 334 335 336 336 337 338 339 340 341 341 343 345 346 346 346 346 347 348 348 348 348 348 347 347 347 346 346 345 345 345 346 346 348 349 348 348 348 349 349 349 350 351 351 352 351 350 349 349 349 351 352 353 352 351 351 350 347 346 354 355 355 354 355 355 356 355 355 352 351 352 353 353 354 355
305 307 308 313 320 325 328 329 330 330 331 332 332 333 333 334 335 335 336 337 339 340 341 341 341 342 343 344 345 345 346 346 347 347 346 346 346 346 345 345 345 345 346 347 348 347 347 347 348 348 349 349 350 351 351 351 351 350 349 349 349 351 353 352 350 349 347 348 352 354 353 354 354 354 355 356 356 356 354 353 353 353 353 353 352
305 306 306 310 318 323 325 327 327 328 329 329 329 330 331 332 332 333 333 334 336 337 337 337 338 339 340 341 343 345 345 345 345 346 346 345 345 346 345 344 345 345 345 346 346 346 347 346 346 347 348 348 349 350 350 350 349 350 350 350 349 349 350 351 349 347 346 351 352 351 352 353 353 353 353 356 356 356 354 354 352 352 351 350 350
302 303 304 308 316 321 323 325 327 327 328 328 328 329 329 329 330 331 331 332 333 333 333 334 336 337 337 338 340 341 343 342 342 342 342 342 343 344 345 344 344 345 345 346 346 345 346 345 345 345 344 345 347 348 349 349 348 350 350 350 349 350 350 349 348 344 347 352 351 350 351 351 352 352 353 355 355 354 354 353 352 350 349 349 348
301 302 303 307 316 319 321 323 324 325 326 326 326 327 327 328 328 329 329 330 330 330 330 331 333 333 333 333 334 335 335 336 337 340 340 340 340 340 342 343 343 343 345 345 347 346 346 345 344 345 345 345 345 347 348 348 347 348 349 349 350 350 349 348 346 343 351 351 351 351 350 347 351 352 351 354 354 352 352 348 348 346 347 348 347
301 301 303 305 314 316 318 321 322 323 324 324 325 325 325 326 326 327 327 327 328 327 327 329 330 330 329 329 329 330 331 331 332 332 333 333 333 335 337 339 341 341 341 342 345 346 346 346 345 345 345 345 344 344 345 345 345 346 347 349 349 349 349 347 343 351 351 350 350 350 349 344 350 350 351 352 353 351 350 346 343 345 346 347 349
300 301 302 304 310 314 316 318 320 321 322 322 323 324 324 324 325 325 325 325 325 325 325 326 326 326 326 326 326 326 327 328 328 327 327 328 328 330 332 335 335 336 337 337 339 341 344 346 345 345 344 344 343 343 344 344 344 345 346 347 347 348 347 345 348 350 350 349 350 350 351 349 348 347 349 352 353 351 349 347 346 347 349 349 348
300 300 301 303 306 312 313 315 317 319 320 320 321 322 322 322 322 322 322 322 322 322 322 323 323 322 322 323 323 323 324 324 324 324 324 324 324 326 328 329 330 331 331 332 334 337 341 344 344 343 342 342 341 342 342 343 344 344 344 345 347 347 345 340 349 349 349 349 349 349 349 349 349 347 349 351 352 351 351 351 350 349 350 349 349
299 299 301 301 304 307 310 311 313 316 317 317 318 319 319 319 320 320 320 320 319 319 320 320 320 320 320 319 320 320 321 322 322 322 321 321 321 323 325 326 326 327 327 328 330 333 337 340 338 337 337 339 340 340 341 342 342 343 343 344 345 345 342 339 342 349 348 348 348 348 348 348 348 346 348 350 351 351 351 351 350 350 350 350 351
298 300 301 301 300 303 306 308 309 311 313 315 315 316 317 317 317 317 318 318 317 317 318 318 319 318 317 317 318 318 318 319 319 319 319 319 319 320 322 323 323 324 324 325 327 329 330 331 331 331 332 333 335 338 339 340 340 340 340 340 341 341 338 346 349 348 347 346 347 347 348 348 345 347 348 350 351 351 351 351 351 351 351 350 350
301 298 299 299 300 300 302 304 306 306 308 311 311 313 314 314 315 315 315 315 315 315 315 316 316 316 315 315 315 315 316 317 316 317 317 316 316 318 320 321 321 321 322 323 325 326 326 327 327 328 329 331 331 332 333 334 337 337 338 338 336 336 335 334 346 347 346 346 346 347 347 347 345 346 348 350 351 352 351 350 351 351 351 351 350
299 299 298 298 300 299 299 301 303 303 304 305 308 309 310 311 312 313 312 312 312 312 312 313 313 313 312 311 311 311 311 312 313 314 313 313 314 315 316 318 318 319 320 321 322 323 323 324 325 326 327 328 328 328 329 332 335 335 335 336 335 334 332 329 343 344 345 345 345 346 345 346 344 346 348 349 351 352 350 350 350 351 351 351 349
298 297 296 296 298 299 298 300 300 300 300 301 303 307 307 308 309 309 309 309 309 310 309 309 309 309 308 308 306 306 307 308 309 310 311 310 310 311 313 315 316 316 317 318 319 320 320 321 323 324 325 325 324 323 322 325 327 331 333 333 333 332 330 328 340 343 344 341 345 344 344 340 342 345 348 349 350 350 350 350 351 350 350 350 349
297 295 296 296 296 298 297 298 299 299 300 300 300 302 304 305 306 306 306 307 307 307 306 305 306 306 306 305 304 303 303 304 305 306 307 307 308 307 310 312 313 314 314 315 316 317 317 318 320 322 322 322 321 319 319 320 321 322 324 325 327 326 323 328 339 342 342 343 343 343 343 339 341 344 348 350 350 351 352 351 350 349 349 350 349
296 296 295 296 296 296 298 297 298 298 299 299 299 300 303 302 303 304 304 304 304 304 304 303 303 303 303 303 302 301 301 301 303 301 303 304 304 304 307 309 310 310 311 312 313 314 315 316 317 319 319 318 317 315 315 317 318 319 319 319 321 320 333 337 338 339 341 340 341 342 339 338 341 344 347 348 348 349 349 348 348 349 348 349 349
295 295 295 294 295 295 296 297 297 297 298 299 299 300 300 300 299 301 302 302 303 302 302 301 301 300 301 301 301 301 300 300 301 301 301 301 302 303 305 306 307 307 308 309 310 311 312 313 314 316 316 315 313 311 311 313 314 315 315 316 316 329 334 335 337 337 338 340 339 340 337 338 341 344 346 347 347 348 348 349 349 348 348 348 348
293 294 294 294 294 294 295 295 297 297 297 299 298 299 298 298 298 298 300 300 300 300 299 299 299 299 300 300 300 299 299 299 300 301 300 300 300 301 303 304 305 304 305 306 307 308 309 310 311 313 313 312 309 308 309 310 311 312 313 314 318 321 328 332 334 335 336 338 338 337 336 338 341 343 345 347 346 346 347 349 349 346 348 348 347
292 293 293 293 294 294 294 294 295 296 297 298 298 298 297 297 297 298 298 298 299 299 298 298 298 298 299 299 298 298 299 299 299 300 300 299 299 300 301 302 302 301 303 303 304 305 306 307 309 310 309 308 306 307 307 308 309 309 310 313 314 317 317 320 329 333 335 336 336 334 335 338 340 343 345 346 345 346 347 348 348 348 348 348 347
291 293 293 294 293 294 294 294 295 295 296 297 297 297 296 296 296 297 297 297 298 297 297 297 297 298 298 298 297 298 298 298 299 299 299 298 298 299 299 299 300 299 300 299 300 301 303 304 305 306 305 305 305 305 305 306 307 308 310 311 312 313 315 318 322 327 331 333 335 332 334 337 340 342 344 345 344 344 345 349 350 350 348 348 348
292 292 293 292 292 292 293 294 294 295 295 295 296 297 295 295 295 296 296 296 297 296 296 297 297 297 297 297 298 297 298 297 298 297 297 297 298 297 298 298 297 298 299 298 298 299 299 300 301 302 303 303 303 303 304 304 304 306 307 308 309 311 313 316 319 320 323 329 333 329 331 335 338 340 343 345 344 343 343 344 348 350 349 348 348
291 290 291 290 292 291 292 293 293 294 294 294 295 296 294 294 295 296 295 295 297 296 296 296 296 296 296 296 297 296 296 296 296 297 296 297 296 296 296 296 296 296 297 297 297 297 298 298 299 300 301 302 302 302 303 303 303 304 305 306 307 309 311 313 314 316 319 322 328 327 330 333 336 338 341 344 344 343 343 344 344 349 348 348 348
290 290 290 290 292 290 292 292 293 293 293 294 294 294 294 294 295 296 294 295 296 295 295 296 296 296 296 296 296 295 295 295 295 295 295 296 295 295 295 295 295 295 296 295 296 296 297 297 298 298 300 300 301 302 302 302 303 303 304 305 306 307 308 310 312 313 316 317 318 322 326 329 334 337 339 342 342 343 343 343 344 345 346 347 348
289 290 290 290 292 290 290 290 292 293 294 294 293 294 294 294 295 294 294 296 295 294 295 295 296 294 295 295 295 295 294 293 294 294 294 295 294 294 294 294 294 294 295 295 295 295 295 296 297 298 298 299 300 301 301 302 302 303 303 304 305 305 306 307 309 311 313 315 317 318 322 326 330 333 337 340 343 343 343 343 344 345 344 348 346
288 289 290 289 290 292 290 289 290 291 293 293 293 293 293 293 294 294 293 296 294 294 294 295 294 294 294 294 294 293 293 293 293 293 294 293 293 293 292 292 293 293 293 293 293 293 293 294 295 296 297 298 298 299 300 301 301 302 302 302 303 304 304 306 308 310 312 313 315 316 319 323 327 330 332 337 340 342 342 343 343 344 344 346 345
289 289 289 290 289 291 289 290 290 293 293 293 293 293 293 293 293 293 293 294 293 294 294 293 293 293 293 293 293 293 293 292 292 292 292 291 291 291 291 291 291 292 292 291 292 292 292 293 294 295 296 296 297 298 299 299 300 301 301 302 302 303 303 304 306 307 309 310 312 313 314 318 323 328 330 333 337 341 342 343 343 343 344 344 347
289 288 289 290 292 289 290 290 290 294 293 292 294 292 292 292 293 292 293 293 293 294 293 292 293 292 292 293 292 292 292 291 291 290 290 290 290 290 290 290 290 290 291 291 291 291 292 292 292 293 294 295 296 297 298 298 299 300 300 301 301 302 302 303 304 305 306 307 309 311 313 314 319 323 327 331 334 336 338 341 342 343 343 343 344
287 288 289 290 290 288 289 290 290 292 292 292 293 292 292 292 293 292 292 293 293 292 292 291 291 291 292 292 291 291 291 290 290 289 289 289 289 289 289 289 289 290 290 290 290 291 291 291 292 293 293 295 295 297 298 297 298 299 300 300 301 301 301 302 303 303 304 305 307 308 310 311 313 318 323 328 332 335 337 339 339 340 342 342 343
288 288 288 290 288 289 291 290 291 291 290 291 291 292 292 291 292 292 292 293 292 292 291 291 290 291 292 292 291 291 290 289 288 288 289 288 288 288 288 288 289 289 289 289 289 290 290 290 290 291 292 293 294 295 297 297 297 298 299 299 300 300 301 301 302 302 302 304 305 306 307 309 311 312 316 322 327 331 334 336 338 339 340 341 341
287 288 287 287 289 291 292 291 294 292 294 292 293 291 291 292 292 291 292 292 291 290 290 290 290 290 290 291 290 290 289 288 288 288 288 287 287 287 287 287 288 288 288 288 288 288 288 288 289 289 290 290 291 293 294 295 296 297 298 298 299 299 300 300 301 301 302 302 303 304 305 307 308 310 314 317 322 325 329 332 335 337 338 338 340
289 286 287 288 290 288 292 288 293 292 291 290 290 292 292 291 290 291 291 291 291 290 290 290 290 289 289 289 290 289 288 288 288 287 287 286 286 286 286 286 287 287 286 287 287 287 287 287 288 288 288 289 290 291 292 293 294 295 296 298 298 299 299 299 300 301 301 302 302 302 303 304 307 309 313 316 315 319 323 328 332 334 337 338 338
287 286 288 288 286 286 291 290 290 291 292 291 292 291 290 290 290 291 290 291 290 289 289 289 289 289 289 289 289 288 288 287 287 286 286 286 285 285 285 286 286 286 286 286 286 286 286 287 288 288 287 287 288 288 289 289 291 293 295 296 297 298 298 298 299 300 301 301 301 302 302 303 304 306 307 309 314 320 320 323 327 330 333 335 338
285 286 287 286 287 288 292 289 289 290 291 289 289 290 290 290 289 290 289 290 289 289 289 289 289 288 288 288 289 288 287 287 286 286 285 285 285 285 285 285 285 285 285 285 285 286 286 286 287 287 287 286 286 287 287 288 289 290 293 295 296 297 297 298 298 299 300 300 300 301 302 302 303 303 304 306 307 310 317 320 323 325 326 329 333
285 286 286 287 287 287 288 289 289 290 289 289 289 290 290 289 289 289 290 289 289 289 288 288 288 288 288 287 288 287 287 286 286 285 285 285 285 284 284 284 284 284 284 284 284 285 286 286 285 287 287 286 286 286 286 287 289 289 291 292 294 295 296 297 298 298 299 298 300 300 301 302 302 302 303 305 307 310 318 321 319 319 318 322 329
285 285 285 285 286 287 288 290 291 290 288 288 289 290 289 288 288 288 288 287 288 288 288 287 288 287 287 288 288 287 286 286 285 285 284 284 284 284 284 284 284 283 283 283 284 285 285 285 285 285 286 286 285 286 286 287 288 289 290 292 294 295 296 297 298 298 298 299 300 300 301 301 301 301 302 303 305 307 310 321 326 328 326 318 325
283 283 284 284 285 286 287 287 288 287 287 287 288 287 287 287 286 286 286 286 287 287 287 287 287 287 287 287 287 286 286 285 285 284 284 284 283 283 283 283 283 283 282 282 283 283 284 284 283 283 283 284 285 286 287 287 288 290 291 292 294 295 296 297 297 298 298 299 299 300 299 300 301 301 302 303 304 306 308 312 322 327 328 325 321
282 283 284 284 285 286 286 286 287 287 287 287 286 286 285 285 285 285 284 285 285 286 286 287 286 286 287 287 286 285 286 285 285 284 283 283 283 283 283 283 283 282 282 282 283 283 283 283 282 282 282 282 283 286 287 288 287 287 290 291 292 295 295 295 295 296 297 298 299 299 299 299 300 300 301 302 303 305 308 310 316 324 327 328 326
282 282 283 284 285 285 286 286 286 286 286 286 286 287 286 285 284 284 284 284 284 284 284 285 285 286 287 287 286 285 285 284 284 284 283 283 282 282 282 282 282 282 282 283 282 282 282 282 282 281 283 282 282 285 286 287 286 286 286 287 290 292 294 295 295 296 297 298 298 298 298 298 299 299 300 301 302 304 306 309 313 320 326 327 328
283 282 283 284 284 284 285 285 285 286 286 286 286 285 286 286 285 285 284 284 285 285 285 285 285 285 285 285 285 285 284 284 284 283 283 282 282 282 281 282 282 282 281 281 281 281 281 281 281 280 280 282 282 284 285 288 286 288 288 286 285 287 291 293 295 295 296 297 298 298 298 299 299 301 301 301 302 303 305 307 311 317 324 326 327
283 282 282 283 283 284 284 284 285 285 285 286 288 286 286 286 285 285 285 284 283 285 285 285 285 284 284 285 284 284 284 283 283 283 283 282 282 281 281 281 281 281 281 280 280 280 281 281 281 281 281 279 281 281 284 285 285 285 283 286 286 286 283 288 290 293 296 295 296 296 297 297 298 299 299 301 307 308 308 308 308 314 320 325 327
282 282 282 283 283 284 284 284 284 284 285 286 287 287 286 284 284 283 283 283 283 283 283 282 283 283 283 283 283 283 283 283 283 283 282 282 282 282 281 281 281 281 281 280 280 280 280 281 281 280 280 279 279 280 282 284 284 286 285 284 284 284 284 287 288 289 293 293 295 296 297 298 299 299 299 299 300 300 301 306 313 314 319 324 326
281 282 283 283 283 283 283 283 284 284 284 285 285 285 285 283 282 281 280 280 280 280 280 281 281 281 281 282 283 282 282 282 282 282 282 282 281 281 281 280 280 280 280 280 280 280 280 280 280 280 280 281 280 279 279 283 283 284 286 286 287 284 284 287 286 282 292 293 293 295 295 295 296 296 296 297 298 301 304 306 307 314 320 323 325
282 283 282 282 283 283 283 283 283 283 284 284 284 285 283 282 281 281 281 280 279 281 281 282 281 281 282 281 282 282 282 281 281 281 281 281 281 281 281 280 280 280 280 280 279 279 280 280 280 280 280 281 281 279 279 280 282 283 284 285 286 287 288 286 283 285 282 287 292 292 293 295 296 296 296 298 299 299 299 301 303 306 309 321 324
282 282 281 281 281 282 282 282 283 284 283 284 283 284 282 282 281 280 281 280 280 280 281 281 281 282 281 281 281 281 281 281 280 281 281 281 281 280 280 280 280 280 280 279 279 279 280 280 280 280 280 280 280 279 279 280 278 279 282 282 284 285 287 287 287 285 284 282 285 291 293 293 294 294 294 294 295 296 297 300 303 305 309 314 321
282 281 281 281 281 281 282 282 282 283 283 282 282 282 283 282 281 281 280 281 281 281 281 281 281 280 279 280 279 279 280 280 280 280 280 280 280 280 280 279 279 279 279 279 279 279 279 279 279 279 279 279 280 280 279 279 279 279 279 280 281 282 284 285 286 287 284 283 282 285 287 292 293 294 294 296 297 298 299 299 300 304 307 308 313
281 282 281 281 281 281 281 281 281 281 281 281 282 281 281 282 281 280 279 279 280 280 280 279 279 279 278 278 278 278 279 279 279 279 279 280 279 280 279 279 279 279 279 279 279 279 279 279 279 278 279 278 279 279 278 279 280 280 280 280 279 280 280 281 283 284 285 286 282 283 286 287 287 290 294 295 296 297 298 298 299 300 301 305 309
280 280 280 280 280 280 281 280 280 280 281 280 280 280 280 280 280 280 279 279 279 279 278 278 278 278 277 277 277 278 278 278 278 278 279 279 279 279 279 278 278 279 278 278 278 278 278 278 278 278 278 278 278 278 278 279 280 280 280 280 279 280 280 279 280 282 283 283 283 284 286 287 288 288 292 295 295 296 297 298 298 300 302 304 305
Wind_Speed
9 11 11 14 17 18 18 18 16 14 14 14 15 15 15 13 11 7 5 5 6 7 7 8 10 12 12 12 11 11 10 10 10 10 10 10 10 10 9 7 6 5 5 6 6 6 5 5 5 6 7 8 8 9 10 10 10 11 10 9 7 7 9 11 11 9 7 9 10 10 11 11 9 9 8 8 8 8 9 9 11 10 10 10 13
11 11 9 10 17 16 17 17 17 17 17 16 16 16 17 16 16 14 10 8 6 5 6 7 8 8 8 9 9 11 11 12 13 12 12 10 11 12 11 11 10 9 9 8 8 7 7 6 6 6 7 7 8 8 9 10 10 10 9 10 8 6 7 9 9 8 8 7 8 10 10 9 9 8 8 10 10 9 9 11 12 10 9 10 14
8 8 8 9 16 15 16 16 16 16 16 17 18 17 17 17 17 18 16 15 13 11 9 8 8 9 9 8 9 9 10 9 10 10 13 13 10 9 12 13 13 11 11 11 11 10 9 8 8 7 7 6 6 7 8 9 9 9 8 9 9 7 6 7 8 7 7 8 8 9 10 8 6 9 9 10 11 10 9 10 12 13 8 12 14
5 6 7 10 13 14 15 16 16 16 17 17 17 18 18 18 18 18 17 17 16 16 15 14 13 12 11 11 11 10 8 9 8 8 9 10 11 10 12 13 14 14 11 11 11 11 11 11 10 10 8 5 6 7 8 7 7 7 7 8 9 9 7 6 6 7 7 8 8 8 7 6 5 7 10 10 11 11 9 12 12 14 13 14 16
6 7 7 7 8 9 15 15 16 16 16 16 17 17 18 18 18 18 19 19 19 19 18 17 17 17 16 17 16 15 14 11 10 10 8 8 9 7 5 9 11 14 15 12 12 11 12 12 12 12 10 8 6 6 7 7 6 7 8 8 8 8 8 7 6 6 7 7 7 7 7 7 5 6 10 11 12 11 8 12 12 16 15 14 17
7 6 6 6 7 8 14 14 15 15 16 16 17 17 18 18 18 19 18 18 18 18 19 19 19 19 20 20 18 17 17 17 16 15 13 12 11 10 9 8 10 12 14 15 16 16 16 13 13 13 12 10 8 7 6 7 7 8 8 9 8 8 8 7 6 6 7 7 7 7 7 8 7 6 10 12 13 12 8 11 15 17 18 16 17
5 5 6 6 5 9 13 14 15 15 16 16 17 17 18 18 18 18 18 18 18 18 18 18 18 18 18 19 19 18 18 18 19 19 18 17 15 13 13 12 10 10 12 12 14 15 15 18 15 13 13 12 10 9 8 8 8 8 7 8 9 9 8 7 6 6 7 6 5 6 7 8 7 6 10 12 13 13 9 13 15 18 18 17 18
5 5 6 6 6 11 14 14 15 15 16 16 17 17 17 17 17 17 18 18 18 18 18 18 17 18 17 17 18 19 19 19 19 19 19 20 20 19 17 16 14 13 13 13 13 13 13 13 14 17 16 13 11 11 10 8 9 8 7 7 8 9 9 8 7 7 7 6 5 5 6 7 9 8 10 12 14 14 13 12 14 16 15 19 11
7 7 6 6 6 13 14 14 15 15 16 16 17 17 17 17 18 18 17 17 17 18 18 18 18 19 18 17 19 19 19 20 20 20 20 20 20 19 19 18 18 17 16 15 14 13 13 13 13 14 15 15 13 12 10 10 11 8 7 9 9 9 9 9 8 8 7 6 6 6 7 7 8 9 10 12 14 14 14 10 13 12 16 15 11
6 5 6 5 6 14 14 14 15 15 16 16 17 17 17 17 17 17 17 17 17 17 17 17 17 17 17 18 18 18 18 18 19 19 19 19 19 19 19 18 18 18 18 18 17 16 15 14 13 14 15 16 16 14 12 12 13 11 10 11 9 9 9 9 8 8 8 8 9 8 8 8 8 8 11 12 14 14 13 10 8 9 10 15 13
6 5 6 6 8 14 15 14 15 15 16 16 16 16 17 17 17 17 17 17 17 17 17 17 17 17 17 17 17 17 18 18 18 18 18 18 18 18 19 20 20 20 20 21 21 19 19 17 16 16 16 16 17 18 18 16 16 15 14 11 10 9 9 9 7 6 7 9 9 9 10 8 8 8 10 13 15 14 12 9 11 11 13 15 14
5 6 6 6 8 14 14 15 15 16 16 16 16 17 17 17 17 17 17 17 17 17 17 16 16 16 16 16 17 17 17 17 17 17 17 18 18 18 18 19 19 20 19 19 19 20 22 21 20 19 18 17 16 16 17 18 18 17 17 15 13 11 9 10 7 7 7 8 9 9 10 11 11 10 12 14 15 15 13 12 11 15 16 17 16
5 5 5 5 6 12 14 15 15 15 16 16 17 17 17 17 17 17 17 17 17 17 16 16 16 16 16 16 16 16 16 16 17 17 17 17 17 18 17 17 18 18 18 18 19 19 20 20 21 21 21 20 18 16 16 16 16 17 17 16 13 11 10 10 7 8 8 8 8 9 10 11 11 12 13 14 16 16 16 14 13 14 18 20 18
5 4 4 5 6 10 14 14 15 15 16 16 16 17 17 17 17 17 17 17 17 17 17 16 16 16 17 17 17 17 17 17 17 17 17 17 17 17 17 17 18 18 18 18 18 18 18 19 19 18 18 18 18 18 17 16 16 15 16 17 15 12 11 9 9 8 9 9 8 10 10 9 10 11 13 15 16 18 17 14 15 16 19 21 20
5 6 5 5 5 6 11 14 14 15 16 16 16 17 17 17 17 17 17 17 17 17 17 17 17 17 17 17 17 17 17 17 17 17 18 18 18 17 17 17 17 17 18 18 18 18 18 18 18 17 17 17 18 17 18 17 17 16 14 15 16 15 12 9 8 9 9 8 8 9 10 10 11 11 14 14 17 18 18 17 16 18 19 19 20
5 5 5 5 5 5 5 9 14 15 16 16 17 17 17 17 17 17 17 17 17 17 17 17 17 17 17 17 17 17 17 18 17 18 18 18 18 17 17 17 17 17 17 18 18 18 18 18 18 18 17 17 17 17 17 16 16 15 15 14 13 14 14 9 8 9 10 9 8 9 9 10 10 11 13 16 18 18 18 18 16 18 19 19 20
6 4 5 5 5 4 5 5 9 12 13 15 16 17 17 17 18 18 18 18 18 18 18 17 17 17 17 17 17 17 17 17 17 18 18 18 18 17 17 17 17 17 17 17 17 17 18 18 17 17 17 17 16 17 18 17 16 15 15 15 13 13 13 13 8 10 9 10 8 8 9 9 10 13 14 17 18 19 19 18 19 19 20 20 20
6 5 4 4 5 5 5 5 6 6 7 9 12 16 17 17 17 17 17 18 18 18 18 17 17 17 17 16 16 16 16 16 17 17 17 18 17 17 18 18 17 17 17 17 17 17 17 17 17 17 17 17 16 17 17 18 18 17 16 16 15 13 12 12 9 10 11 9 10 9 8 10 10 12 14 15 17 19 19 19 19 19 19 21 20
5 4 3 4 4 4 5 5 6 5 6 5 6 9 16 15 16 16 16 16 17 17 17 17 16 16 16 15 14 13 14 15 15 16 16 16 16 15 18 18 18 18 18 18 17 17 17 17 17 16 16 17 17 17 17 16 17 17 18 18 16 15 14 10 8 9 11 9 10 9 9 10 12 14 14 16 17 19 20 20 21 21 19 20 19
3 3 3 3 3 4 4 4 5 5 5 5 6 6 10 13 13 14 15 15 15 15 15 14 13 13 13 13 11 8 8 8 11 10 14 15 15 14 16 16 17 18 18 18 18 18 17 17 17 17 17 17 17 17 15 16 16 17 17 18 17 17 9 6 8 10 9 9 9 10 10 11 13 14 15 17 18 19 20 21 21 20 21 20 21
2 2 2 2 3 3 4 3 4 5 5 5 4 5 6 9 7 10 11 12 12 13 13 11 10 8 9 8 7 6 6 6 6 8 8 9 12 13 15 16 16 16 17 17 17 17 17 18 17 17 18 18 17 16 13 14 15 15 16 16 17 10 8 8 8 8 9 9 9 10 11 14 13 14 16 17 18 19 20 21 22 21 21 22 22
1 1 1 2 2 3 3 3 3 4 3 3 3 3 4 5 5 5 5 6 7 8 7 7 7 6 8 6 6 6 5 5 6 7 7 8 8 13 13 14 15 15 15 16 16 17 17 17 17 17 17 17 17 9 9 11 13 13 13 13 9 8 9 10 9 8 9 9 9 10 11 15 15 15 17 18 19 21 21 21 22 23 23 23 22
3 1 1 2 1 1 2 3 2 3 3 3 3 3 4 4 4 4 4 5 5 6 4 5 5 6 6 5 5 5 5 5 6 7 6 8 8 11 13 13 13 13 14 14 14 15 16 16 16 16 16 15 9 8 8 8 9 12 10 8 7 8 10 10 10 9 9 9 10 11 12 16 17 17 18 18 19 21 22 22 22 23 22 23 21
4 3 2 0 0 1 1 1 2 3 3 3 3 3 3 3 3 4 4 4 4 4 5 5 5 5 5 5 5 5 5 5 6 7 6 5 5 7 10 11 11 11 14 8 10 11 14 13 13 15 10 7 8 8 8 8 8 8 8 8 7 8 9 9 8 9 9 10 10 12 14 17 18 18 19 20 20 21 23 24 24 23 23 22 22
4 2 1 1 1 0 0 2 2 2 3 2 2 3 3 3 3 3 4 4 4 4 4 5 5 6 6 6 6 5 4 5 5 5 6 5 6 6 6 7 7 8 11 8 7 7 8 8 8 8 7 8 8 8 8 9 9 8 8 8 8 8 8 8 8 9 10 10 10 13 14 19 19 20 20 21 21 22 23 24 24 24 23 23 22
1 3 3 1 0 0 1 2 2 2 2 1 1 2 3 3 3 3 3 4 4 4 4 4 5 6 6 7 7 7 7 6 6 6 6 6 6 7 7 7 7 7 7 7 7 8 7 7 8 8 7 8 8 8 8 8 9 9 9 9 9 8 8 8 8 9 9 10 11 14 14 17 20 22 21 21 22 22 23 24 25 24 25 24 23
4 4 2 2 1 1 1 1 2 1 1 0 1 2 2 2 2 3 3 3 3 4 4 4 5 6 6 6 7 7 7 7 7 7 8 7 7 7 8 7 8 7 7 7 8 7 7 7 8 8 8 8 8 8 9 9 9 10 10 10 9 9 8 8 8 8 9 9 11 15 15 16 20 24 23 23 25 24 23 24 24 25 23 25 24
4 4 3 2 1 1 0 2 1 1 0 1 2 3 2 3 3 3 3 4 4 4 4 5 5 6 6 7 6 6 6 7 7 7 7 7 8 8 8 7 8 8 8 7 8 7 8 7 8 9 8 8 8 9 8 8 9 9 10 10 10 10 9 9 9 9 9 9 10 13 14 15 16 20 24 25 24 25 26 26 26 26 28 25 26
6 5 3 3 1 1 1 2 2 2 1 1 4 3 3 3 3 4 4 5 4 4 4 4 5 5 5 6 6 6 6 6 7 7 6 7 7 7 7 7 7 8 8 8 8 9 8 8 8 8 8 8 8 8 8 9 8 9 9 11 11 11 10 10 10 9 9 9 10 11 14 16 17 18 22 25 26 26 26 27 27 27 27 26 25
7 6 4 4 2 1 2 3 1 2 1 3 3 3 3 3 4 4 3 4 4 3 4 4 4 4 5 6 6 6 6 6 6 6 6 6 6 6 6 7 7 7 8 8 8 8 9 9 9 9 9 9 9 9 9 9 9 9 9 10 11 11 10 10 10 10 9 9 10 11 15 15 16 19 21 25 28 26 27 27 28 29 28 27 26
6 6 5 4 2 2 3 1 1 1 2 3 2 3 2 3 3 2 3 3 3 3 4 4 4 4 5 5 6 6 6 6 6 7 6 6 6 6 7 7 7 7 7 7 8 8 8 8 9 9 9 9 9 9 9 10 10 9 9 10 11 11 11 11 11 11 11 10 9 10 13 17 17 17 18 20 24 25 26 26 28 29 29 28 28
8 7 5 3 2 3 2 1 1 1 3 3 2 2 2 2 2 2 3 3 3 3 3 4 4 4 4 4 6 6 6 6 7 7 7 7 6 6 6 6 7 7 7 8 9 8 8 9 10 9 10 9 9 8 8 9 10 10 10 11 11 11 11 11 11 12 11 11 10 10 11 12 17 18 18 20 23 25 25 25 28 28 28 28 29
5 7 6 4 5 4 3 2 1 2 3 2 2 1 1 2 2 2 2 2 2 2 3 3 3 3 4 4 5 6 6 6 6 7 7 6 6 6 6 6 6 7 7 9 10 8 7 8 8 8 9 9 9 9 9 8 10 10 10 11 10 11 11 11 12 12 12 12 11 10 11 11 13 17 19 18 21 24 24 24 25 29 29 29 29
7 5 4 6 4 3 2 2 2 3 1 2 2 2 2 1 1 1 2 2 1 2 2 2 2 3 3 4 4 5 5 5 6 7 6 6 6 5 5 5 6 7 7 7 7 7 7 8 8 8 8 8 9 9 10 10 9 9 10 10 10 11 11 12 12 12 12 12 12 12 11 11 11 11 12 17 18 20 24 23 24 25 28 30 30
7 6 8 8 6 4 3 3 2 2 2 2 2 2 1 1 1 1 2 1 1 2 2 2 2 3 3 3 3 4 4 5 6 6 6 6 5 5 5 5 6 7 6 6 7 7 7 8 8 9 8 8 8 9 10 10 11 12 11 10 11 11 11 12 12 13 13 13 12 13 12 12 11 11 11 12 15 18 21 23 23 24 26 28 31
10 9 8 6 7 5 4 5 2 2 1 1 1 0 1 1 1 1 2 2 2 2 2 2 2 2 2 2 2 3 4 5 5 6 6 6 5 6 5 6 7 6 6 7 7 7 7 7 7 8 9 9 9 10 9 11 11 12 11 11 11 11 11 12 13 13 13 13 13 13 12 12 12 11 12 12 13 15 18 20 22 23 24 26 27
10 10 10 8 7 6 5 6 5 3 2 1 1 1 1 2 2 2 2 2 2 2 2 2 2 2 2 3 2 3 4 4 5 5 5 6 5 6 5 6 6 6 6 6 6 6 7 7 7 7 7 9 10 12 11 10 11 12 12 13 12 12 12 11 13 13 13 14 15 14 13 13 13 15 14 13 14 14 17 21 21 23 24 25 26
9 10 10 10 10 8 7 6 4 3 1 1 1 1 1 2 2 2 2 3 3 2 2 2 2 3 2 3 3 3 4 4 5 5 5 5 5 5 5 6 6 6 6 6 6 6 6 7 8 7 8 9 9 10 12 11 11 12 12 13 13 12 12 13 13 13 13 15 14 14 14 13 13 14 13 14 14 14 14 16 21 23 24 25 27
8 10 9 8 7 7 5 6 5 3 2 1 1 1 2 2 1 3 3 3 3 3 3 3 3 3 3 3 3 4 4 4 5 5 5 5 5 4 5 6 5 5 6 6 6 6 6 7 8 9 8 8 9 10 11 12 13 13 14 15 14 15 13 13 14 13 14 15 15 15 13 14 14 14 14 15 14 15 16 15 12 11 15 25 26
8 8 9 8 8 7 6 4 4 3 2 1 0 1 1 2 3 2 3 3 3 3 3 4 3 3 3 3 3 4 5 5 5 5 6 6 5 5 6 6 6 6 6 7 7 7 9 10 9 10 11 9 8 9 10 12 13 14 16 16 15 15 16 14 15 15 14 15 15 13 14 13 13 14 15 14 14 15 16 16 14 13 15 18 24
8 9 9 9 9 9 8 8 5 4 3 3 2 2 2 2 2 2 3 3 3 3 4 4 3 3 4 4 4 4 5 5 5 5 6 6 5 5 6 6 6 7 7 7 8 9 8 8 9 8 10 10 8 7 9 10 13 14 11 14 15 12 16 16 17 15 15 14 13 14 14 14 14 15 15 14 15 16 16 16 16 15 14 14 17
9 9 11 11 10 8 9 7 5 4 4 4 3 3 3 2 2 3 3 3 4 4 4 2 3 3 4 4 4 4 6 6 6 5 6 6 6 6 6 7 7 7 7 8 9 9 9 8 8 10 6 9 9 7 9 9 9 9 15 16 15 12 14 16 15 13 15 14 14 14 14 14 15 14 13 14 15 16 16 16 16 16 15 15 16
11 11 10 10 9 8 7 7 6 6 5 5 4 4 3 3 3 3 2 3 3 4 4 4 4 4 4 5 5 5 6 6 6 6 5 5 6 6 6 6 6 7 8 8 8 9 8 9 9 8 11 7 9 7 8 6 10 10 12 14 15 16 10 8 10 12 12 11 11 12 12 13 15 13 13 14 14 15 15 16 17 17 17 16 15
9 10 9 11 8 8 8 8 7 7 6 5 5 5 4 3 2 2 3 3 5 5 5 5 5 6 6 4 5 5 6 7 7 7 6 5 6 6 6 6 7 7 8 9 8 8 8 8 8 9 8 13 7 8 5 7 8 10 9 4 11 11 18 6 2 8 8 12 14 14 13 14 15 15 14 15 14 15 15 16 18 18 18 17 15
11 12 12 11 9 11 10 10 8 8 7 6 6 5 3 2 0 2 2 4 2 3 4 5 4 5 7 7 7 5 7 8 7 7 7 7 6 6 7 7 8 8 7 8 8 8 8 8 9 9 9 9 13 9 8 6 9 8 10 11 9 7 10 15 17 17 9 11 14 13 11 12 12 11 11 12 12 13 15 17 18 19 19 17 17
13 12 11 11 10 9 9 8 7 6 7 7 6 4 4 3 2 2 2 2 4 2 4 5 5 6 7 6 7 6 7 7 7 8 7 7 7 7 7 8 8 8 8 8 9 9 9 9 8 9 10 10 11 13 11 7 9 10 13 13 12 12 14 14 13 18 8 9 15 13 15 16 16 16 15 16 16 14 12 13 15 18 19 19 17
11 10 9 9 9 8 9 9 8 6 6 6 5 5 4 3 4 4 3 3 5 5 4 5 5 6 6 8 8 7 6 7 8 7 7 7 7 7 7 7 8 8 8 9 9 10 9 9 8 8 9 10 10 13 14 11 9 11 11 15 17 17 18 14 14 14 21 14 9 14 14 12 12 14 15 15 15 15 15 14 14 15 18 20 19
11 10 9 8 10 10 9 8 6 6 5 5 5 4 5 4 4 4 3 4 6 8 6 6 5 6 8 8 7 7 7 6 8 7 7 7 7 7 7 8 8 9 9 9 9 9 9 9 9 10 10 10 11 12 14 12 11 11 8 12 15 17 18 20 21 17 18 21 21 13 16 20 17 17 19 20 20 18 19 16 15 13 13 16 19
11 11 11 10 9 8 8 7 7 5 4 5 4 4 5 5 4 4 4 5 6 7 6 6 7 6 9 8 7 8 8 7 7 8 7 7 7 8 8 8 9 9 9 10 10 10 11 12 11 10 10 10 10 12 13 14 12 13 12 13 13 14 14 16 18 18 17 18 23 22 19 14 17 17 17 17 17 16 16 16 16 15 13 14 16
10 9 9 8 8 8 8 8 7 5 4 5 4 4 5 4 5 5 6 6 4 5 5 6 6 6 8 8 8 7 7 7 7 7 8 7 8 8 9 9 10 10 10 11 12 12 12 12 12 11 11 13 11 12 14 13 13 14 13 12 13 12 13 14 16 17 18 19 22 22 19 20 20 17 14 16 18 16 16 16 17 16 16 15 14
8 9 9 9 9 9 8 9 7 5 5 5 6 5 5 5 5 6 7 6 5 5 6 7 5 6 7 7 7 7 7 7 7 7 7 8 8 8 9 10 10 10 11 11 12 11 11 11 11 13 13 14 12 13 15 16 14 15 16 13 14 14 13 14 15 15 16 17 17 19 18 17 18 21 17 16 17 18 17 15 15 15 14 14 13
Wind_Direction
0 338 331 330 337 359 12 20 26 33 36 38 41 44 45 44 41 31 6 341 328 323 329 333 335 335 336 328 328 324 323 323 323 327 326 324 323 320 318 314 305 298 295 299 302 303 304 308 309 312 315 316 315 316 317 317 314 319 323 324 320 327 328 323 315 289 270 273 265 264 270 267 262 266 262 243 234 208 195 213 210 201 200 201 189
317 322 320 324 340 355 18 22 27 32 37 39 42 44 47 48 48 47 44 32 18 355 336 329 332 332 322 320 324 321 324 331 332 329 321 323 325 319 319 317 317 317 316 314 313 313 313 312 312 315 316 316 317 314 311 310 312 316 320 319 317 317 323 322 322 312 293 267 262 262 264 268 267 261 259 251 240 230 194 207 215 205 203 198 196
306 318 322 324 345 353 24 28 32 36 39 39 40 42 46 49 51 51 50 47 44 39 35 24 10 359 350 348 330 324 323 321 322 319 321 318 311 319 333 328 319 315 318 318 319 319 319 317 316 314 311 308 312 308 303 303 304 312 312 312 309 306 310 318 318 312 287 279 262 259 265 266 271 267 255 252 249 246 202 207 217 215 203 197 201
317 325 328 343 345 356 27 32 37 40 41 42 43 43 44 45 47 48 49 49 48 47 45 41 37 34 26 25 16 10 4 351 324 322 320 315 318 337 337 329 325 318 310 308 307 310 313 312 311 309 308 315 298 296 298 294 294 297 304 301 299 298 300 304 309 309 304 294 280 257 257 260 255 254 255 249 247 246 215 205 208 219 214 200 201
349 344 343 339 342 0 31 37 40 43 44 44 45 45 45 45 43 44 43 43 44 43 43 42 41 38 35 32 30 28 28 21 11 6 353 345 346 351 316 317 316 320 310 307 302 303 305 306 309 310 309 308 301 293 288 282 287 294 300 300 293 289 295 291 290 295 296 291 282 267 261 260 262 262 254 250 251 249 220 206 207 216 218 209 203
348 344 340 339 340 5 36 42 45 46 47 46 47 47 46 46 45 43 41 43 42 41 40 39 37 38 35 32 29 28 30 31 29 23 16 12 4 3 350 336 326 318 308 320 323 316 309 304 304 306 310 309 305 301 292 285 281 286 296 300 292 282 285 289 285 288 288 288 285 280 270 262 260 259 249 248 249 251 222 204 216 216 217 215 208
342 341 348 346 334 27 38 45 48 48 49 48 49 48 48 47 47 45 44 42 41 40 42 40 37 36 35 31 30 28 30 31 30 27 26 22 20 15 9 359 346 331 325 322 315 317 314 309 306 306 309 311 311 308 302 298 285 286 288 293 294 285 273 275 274 273 278 283 290 291 285 273 262 260 250 249 249 252 231 220 221 223 221 219 215
6 5 354 348 337 35 40 45 47 50 49 50 49 49 49 48 48 48 47 46 44 41 41 39 37 39 37 32 33 30 31 32 30 29 27 25 25 23 24 17 9 359 347 338 332 327 316 310 313 313 314 311 312 311 308 303 300 290 289 294 297 294 284 266 263 263 268 274 277 282 279 275 270 261 255 248 252 252 253 224 230 237 232 222 223
18 1 359 354 348 36 42 44 47 49 50 50 49 49 48 49 49 49 50 49 47 45 43 41 40 40 39 37 35 34 32 32 32 28 30 27 27 24 22 21 18 10 5 358 352 340 333 332 330 320 308 309 316 318 319 317 312 299 296 296 293 294 287 273 259 254 263 268 266 268 268 266 265 263 258 250 253 259 261 236 224 237 247 233 226
8 3 4 358 356 36 40 43 47 49 52 52 51 51 51 50 50 51 50 51 50 48 46 45 44 44 42 40 38 37 36 35 33 31 29 27 27 24 18 22 17 14 11 9 4 356 346 340 336 333 330 325 320 321 320 317 315 309 300 297 287 287 290 278 254 250 266 269 271 267 267 257 263 264 266 257 256 261 265 226 198 209 230 227 210
12 10 7 1 4 38 41 43 47 50 52 52 53 53 52 53 53 52 52 50 50 49 48 47 47 46 44 43 41 39 38 37 36 34 32 28 25 22 17 19 17 19 19 17 13 7 359 356 357 348 344 345 343 337 330 327 321 316 309 299 289 282 282 281 258 262 259 265 268 269 269 238 257 264 265 264 264 263 262 240 199 211 228 241 224
20 14 11 6 357 38 40 44 45 48 48 50 51 51 52 52 53 52 51 51 50 50 49 49 48 48 46 44 42 41 40 38 37 36 33 30 27 24 21 19 14 15 14 12 10 9 7 5 8 4 1 358 354 347 341 334 328 323 317 310 305 295 284 283 280 277 267 264 262 263 265 268 266 260 255 260 262 261 253 235 204 213 222 231 232
28 20 14 1 357 33 42 42 45 47 47 48 48 48 48 49 49 50 49 49 48 48 48 48 49 47 45 44 43 41 40 39 38 37 33 30 27 24 22 20 17 15 13 11 9 7 8 8 10 7 4 0 357 351 344 338 333 327 319 311 305 298 285 280 281 278 274 266 263 258 263 267 265 256 250 253 258 255 255 251 222 213 221 226 228
51 30 19 13 17 16 39 42 44 46 49 48 48 49 49 48 47 47 47 46 46 45 45 45 44 43 41 41 40 39 38 37 36 35 34 30 27 23 21 20 18 15 12 9 9 7 7 8 7 6 2 359 357 352 348 344 340 335 328 321 312 301 293 278 277 279 276 270 259 256 258 258 263 257 257 255 256 257 252 247 239 217 218 224 226
62 37 23 21 18 18 23 40 42 44 46 47 47 48 48 48 48 47 46 45 44 43 42 42 41 41 40 38 36 35 35 34 34 33 31 28 25 24 21 19 18 15 12 8 7 7 5 2 1 1 0 358 355 352 351 351 345 339 334 329 324 313 296 289 285 282 278 270 266 257 256 257 253 250 261 255 256 258 255 249 245 230 224 223 224
52 43 30 24 21 22 17 26 38 39 42 44 45 45 45 45 45 45 44 44 43 42 40 40 40 40 39 37 35 34 32 31 31 30 29 26 24 22 20 18 17 15 12 9 7 6 3 360 359 358 358 358 355 352 349 345 341 337 333 329 323 318 308 290 285 282 279 273 267 262 260 260 252 251 252 253 256 254 253 249 246 243 235 230 227
41 33 43 26 21 25 27 26 34 36 35 35 39 42 41 42 42 41 41 41 40 40 39 38 39 39 38 36 35 32 32 31 30 29 28 24 22 20 18 16 16 14 11 8 6 5 1 358 357 355 356 357 356 354 350 346 341 338 336 331 324 317 311 302 284 280 276 273 265 266 266 264 255 250 250 253 255 254 256 249 244 243 239 233 228
36 33 35 26 27 24 31 27 29 31 32 32 27 37 40 40 40 40 39 39 38 37 36 35 36 37 38 37 35 34 32 32 30 29 27 24 22 18 16 14 14 13 10 7 6 3 0 358 356 355 355 355 356 354 350 346 343 341 338 333 326 318 309 302 291 282 277 272 267 263 265 264 254 251 249 250 257 261 258 251 245 244 243 236 225
38 31 20 27 28 21 28 26 27 26 31 34 32 25 37 35 37 38 39 39 38 36 35 32 31 33 34 35 33 29 28 28 30 28 27 24 21 18 15 14 13 10 7 6 4 2 359 357 355 354 354 354 354 351 346 343 342 341 339 336 326 318 309 298 284 278 275 268 266 262 258 249 249 248 247 251 252 254 259 250 247 246 243 245 235
46 24 33 21 20 34 23 29 26 25 27 34 33 29 33 32 30 31 33 35 36 35 33 29 23 22 24 23 21 20 20 22 20 26 23 23 20 17 15 14 13 10 7 5 2 360 357 355 354 352 352 353 352 346 342 341 340 339 337 332 325 313 304 298 292 281 276 270 259 262 259 252 250 246 243 249 253 252 251 258 251 246 244 241 241
21 38 22 17 31 39 28 37 26 24 26 33 37 35 33 36 25 24 25 27 26 24 20 16 15 10 13 11 8 18 16 14 13 23 16 21 16 16 14 13 13 10 6 5 1 359 357 354 352 350 350 349 348 341 337 339 337 334 333 328 320 315 315 306 298 287 276 273 262 259 252 256 255 249 242 245 252 252 252 250 253 245 243 241 238
88 71 11 14 39 41 36 34 29 22 25 31 42 41 34 37 31 21 22 21 16 18 9 12 5 5 2 2 9 13 12 12 13 15 15 12 12 13 12 11 11 8 4 3 359 358 356 353 350 348 347 346 343 340 336 334 331 332 326 321 324 330 322 316 305 294 284 275 268 262 244 253 255 253 247 244 251 255 252 251 250 252 247 245 240
142 178 89 33 26 49 37 42 30 18 29 36 33 38 38 33 26 25 20 19 15 13 12 7 7 1 358 356 5 7 2 3 10 6 6 1 1 3 6 7 7 5 1 360 356 354 352 350 347 345 343 341 340 338 334 331 329 328 327 329 329 323 320 316 309 301 288 282 274 266 252 257 253 254 252 245 252 255 252 250 250 249 246 246 240
172 177 123 344 31 53 39 72 37 22 40 31 29 42 38 32 28 22 22 16 13 11 9 7 6 3 358 356 3 357 353 1 358 355 355 359 1 353 355 355 357 356 354 353 349 349 346 344 341 341 338 340 337 333 331 328 326 326 325 324 321 318 315 314 310 307 301 291 281 273 262 263 258 254 252 253 254 257 258 252 247 247 243 242 241
179 154 211 208 23 83 4 52 33 39 41 27 37 39 41 40 32 23 24 19 9 9 7 2 3 0 358 357 355 353 349 360 1 2 5 0 356 356 355 357 354 351 349 349 347 342 343 340 338 338 336 335 332 330 328 325 322 321 320 318 315 312 310 309 308 304 302 298 290 279 270 270 264 259 255 251 253 256 258 260 252 244 242 242 242
198 162 167 158 203 195 39 27 46 46 44 24 41 59 55 45 35 29 29 22 18 9 7 4 1 0 357 356 350 355 356 358 0 2 2 359 358 358 357 353 351 349 350 347 344 341 339 337 336 333 330 328 324 322 320 318 317 315 313 312 309 307 303 302 302 299 300 300 298 293 277 273 272 266 259 252 248 252 257 259 260 250 241 238 238
180 173 189 211 211 157 61 97 77 71 65 252 135 77 57 68 55 47 40 23 24 16 9 4 3 357 357 357 356 356 357 355 357 358 1 357 359 358 355 353 351 349 349 345 340 338 336 334 331 329 324 319 318 314 313 312 309 308 307 306 306 303 299 296 294 294 295 295 294 294 287 277 275 272 264 257 260 258 255 258 260 260 248 241 237
158 168 184 194 173 85 71 120 102 111 234 286 70 54 43 44 36 38 39 26 22 19 11 5 358 1 1 359 359 356 355 356 356 359 358 359 1 354 352 352 352 349 346 345 341 338 334 330 326 323 321 319 312 312 309 308 307 304 302 301 302 301 298 295 292 290 292 291 293 292 291 289 280 275 270 266 259 254 253 255 257 259 260 246 240
160 173 184 171 162 195 137 100 89 53 44 7 45 34 30 27 30 25 26 15 23 17 9 6 7 1 1 3 3 359 357 359 357 356 350 358 356 355 351 351 349 348 345 343 344 338 334 331 326 323 321 316 313 309 308 303 301 302 300 299 297 298 296 294 292 292 288 289 289 289 288 286 282 278 276 270 263 259 260 259 259 258 258 256 244
173 169 173 174 191 176 117 86 73 57 21 47 41 39 23 23 20 23 12 19 21 15 14 17 8 9 9 12 4 357 360 357 354 352 350 350 350 350 350 351 346 345 345 340 340 334 331 328 327 323 319 316 312 307 306 301 299 295 295 295 295 295 294 294 292 292 291 288 287 289 290 288 284 281 276 270 267 259 255 257 259 259 258 258 250
171 175 181 178 180 134 108 113 87 71 72 60 47 47 29 31 22 17 18 21 12 19 22 13 14 14 12 12 2 355 355 358 354 350 346 346 346 349 350 345 342 345 340 334 332 330 326 325 324 323 320 315 309 306 305 301 295 292 290 290 292 291 291 291 291 289 289 288 287 287 287 286 284 279 276 272 265 261 261 257 259 260 260 259 255
178 177 174 172 146 139 137 150 110 79 78 63 68 35 33 19 24 17 26 18 21 23 18 16 11 12 6 10 1 354 358 356 354 348 342 340 342 344 342 345 342 337 337 332 327 323 320 317 318 319 315 312 309 307 304 301 297 293 289 285 285 287 288 289 289 289 287 287 285 285 284 286 285 280 272 267 267 262 255 253 255 258 259 260 260
194 168 168 159 161 167 159 152 124 89 72 74 51 70 30 32 19 26 23 24 31 26 22 12 8 5 1 2 0 355 357 353 346 340 334 330 334 337 344 341 337 334 329 327 323 321 320 318 316 317 316 317 313 312 309 300 297 296 293 289 286 281 282 284 285 286 285 284 284 281 278 280 280 281 275 265 261 261 254 251 252 255 257 258 258
166 175 146 167 168 179 180 140 106 77 89 82 70 47 29 14 30 35 27 15 34 25 15 6 5 1 354 350 355 349 346 344 337 332 330 327 326 331 334 334 333 330 325 325 324 323 319 320 319 318 315 312 308 307 309 306 301 297 295 295 289 287 284 280 278 279 282 282 282 279 278 276 277 279 281 274 259 253 256 249 249 251 254 257 257
149 160 172 168 167 174 174 140 119 130 76 51 54 20 24 5 20 32 9 358 13 18 2 352 353 348 340 335 339 337 329 332 331 329 324 321 319 323 329 333 329 324 322 322 318 316 316 317 320 320 314 309 305 305 302 297 296 295 292 292 290 291 287 284 282 276 273 276 276 277 277 276 273 275 274 274 267 254 249 249 243 243 248 249 251
169 168 166 157 165 171 165 142 143 127 86 79 16 60 322 310 21 7 352 355 350 349 336 316 310 318 322 304 310 320 322 324 326 323 315 317 320 325 330 328 329 325 322 318 318 314 315 311 309 313 315 312 313 307 303 296 292 289 287 286 284 283 284 284 282 279 278 275 270 271 274 275 276 274 277 277 276 271 256 247 243 241 241 244 245
172 165 167 167 164 165 158 161 164 156 115 29 32 321 342 357 0 349 330 327 326 312 301 294 292 292 296 289 287 307 305 306 311 309 311 313 318 322 320 323 324 322 316 317 311 313 313 311 308 309 307 305 305 301 303 299 296 292 289 283 282 282 279 278 277 278 279 272 274 271 268 270 274 272 270 266 267 268 260 250 245 241 241 243 242
177 171 170 168 167 167 168 165 164 153 165 174 235 300 340 354 338 333 322 307 287 283 281 286 272 278 277 271 269 286 292 296 303 307 306 305 306 308 313 318 320 318 315 311 306 304 303 309 310 310 311 306 305 305 301 298 296 295 290 284 281 276 277 276 275 275 272 272 271 270 271 272 267 269 271 269 267 264 264 254 244 240 238 239 242
177 173 168 169 160 164 161 166 163 165 164 160 297 14 6 342 343 301 288 276 266 259 267 264 259 262 266 259 260 283 288 291 302 303 305 306 303 305 310 317 315 314 313 310 310 310 312 312 310 311 309 302 300 298 296 296 295 290 289 287 281 276 274 272 274 272 270 270 269 268 267 267 270 267 264 266 265 263 263 262 254 242 235 232 240
175 169 169 167 169 167 163 162 171 162 129 117 65 327 330 284 278 286 274 255 252 262 262 253 256 260 264 262 262 277 282 285 291 298 296 302 310 316 321 324 325 322 321 322 320 324 321 319 315 313 309 301 292 292 297 298 295 293 290 284 277 277 273 269 270 266 267 267 267 267 265 265 265 266 263 259 263 262 259 260 255 245 247 236 230
176 176 167 177 176 172 161 179 174 147 162 177 196 207 219 237 239 227 247 262 263 261 260 265 253 256 263 257 254 272 274 272 281 288 294 300 305 314 321 325 326 323 318 314 315 312 313 313 310 307 306 307 301 295 294 301 305 300 285 282 286 273 272 270 267 266 265 263 263 265 262 262 259 261 262 262 259 259 258 254 251 246 240 244 238
195 178 183 182 178 170 171 167 145 153 171 181 186 189 198 206 236 257 267 275 285 278 280 261 257 262 265 256 258 270 275 273 281 286 293 301 311 318 320 318 323 315 306 302 304 305 306 309 314 310 301 304 300 304 301 308 298 303 315 314 300 292 266 255 254 259 255 255 257 257 260 260 259 261 262 264 261 258 258 256 251 246 241 237 240
180 187 189 177 177 170 174 163 153 166 180 177 179 201 203 214 198 247 251 290 254 269 275 273 277 273 259 246 248 265 268 274 276 281 286 291 295 300 302 306 306 308 308 306 304 304 305 307 309 307 309 295 286 291 294 293 294 302 294 296 300 322 301 243 245 240 249 256 260 262 262 264 268 268 268 267 265 264 261 257 254 248 244 236 235
183 185 186 186 175 173 172 170 172 173 175 184 189 199 193 209 227 257 285 265 287 301 297 297 294 290 273 245 263 276 281 285 286 286 284 285 296 299 304 305 306 306 302 301 300 295 300 303 304 300 301 303 297 292 280 290 287 307 304 262 301 311 303 302 31 284 254 262 267 267 268 269 271 270 272 271 272 271 265 261 257 252 245 239 235
191 189 187 184 176 179 176 175 172 175 175 180 188 177 171 190 236 324 308 300 283 294 308 290 277 279 287 291 289 288 282 281 283 281 287 293 294 293 295 299 299 299 298 294 295 294 295 293 293 292 291 292 299 292 286 271 271 258 269 298 300 266 250 289 323 291 269 266 259 256 263 272 280 288 283 278 277 280 284 280 272 259 249 239 236
196 196 187 184 172 171 168 167 165 167 175 181 178 168 188 189 195 238 286 299 294 282 257 272 288 283 277 284 284 274 272 273 275 282 282 289 292 291 292 296 297 296 295 293 291 294 290 289 289 289 286 279 281 294 288 270 266 259 250 251 251 276 301 302 315 297 309 248 274 262 265 267 272 275 273 275 276 277 275 275 280 280 263 245 238
198 182 184 175 175 165 168 167 165 171 168 172 169 173 176 184 193 208 220 240 262 265 233 239 259 272 277 276 279 276 265 272 276 274 281 277 278 279 279 280 281 283 285 284 282 282 285 284 287 284 282 284 280 280 283 286 283 260 255 254 257 261 266 284 282 295 294 291 237 270 266 260 266 271 275 272 276 281 281 277 274 274 280 269 240
181 182 175 172 175 171 166 168 168 168 165 164 167 167 180 185 190 204 218 224 234 260 274 277 269 274 281 284 289 286 288 281 282 280 277 279 280 279 277 279 281 282 284 280 279 280 282 279 277 278 281 275 271 272 282 281 278 279 260 263 266 264 261 260 260 266 278 288 290 267 265 274 270 264 265 265 264 265 271 272 272 270 273 274 261
185 182 181 177 168 161 159 157 166 163 163 164 163 172 187 185 191 201 224 233 238 255 269 273 283 283 282 283 282 289 289 283 278 284 282 283 284 285 284 283 284 285 286 283 280 280 278 279 278 276 272 273 268 271 275 275 273 272 281 269 265 264 265 262 263 259 261 277 277 280 281 275 275 267 264 262 262 260 266 271 272 275 270 276 278
183 179 169 154 159 154 158 164 172 166 162 157 166 174 184 189 195 203 223 238 235 254 257 267 267 271 273 279 287 289 289 290 288 283 286 286 286 287 286 284 284 285 286 283 283 282 279 275 271 270 270 272 271 269 269 272 272 274 268 272 271 268 266 266 259 258 261 256 268 279 278 283 279 272 264 263 261 261 264 270 274 271 270 271 270
180 169 167 167 157 158 159 170 174 158 158 165 165 180 179 186 198 207 219 243 252 259 275 273 272 273 278 285 286 287 288 291 296 291 285 289 288 286 287 287 286 284 283 283 281 281 280 276 273 269 268 266 269 269 269 269 270 272 272 269 267 266 264 263 264 261 259 264 265 268 279 277 280 285 274 259 254 257 256 260 263 267 269 269 273